#datetime,building,power
2022-03-08T00:00:00,sdl,11.88
2022-03-08T00:01:00,sdl,11.81
2022-03-08T00:02:00,sdl,11.89
2022-03-08T00:03:00,sdl,11.86
2022-03-08T00:04:00,sdl,11.81
2022-03-08T00:05:00,sdl,11.83
2022-03-08T00:06:00,sdl,11.85
2022-03-08T00:07:00,sdl,11.86
2022-03-08T00:08:00,sdl,11.91
2022-03-08T00:09:00,sdl,11.89
2022-03-08T00:10:00,sdl,12.45
2022-03-08T00:11:00,sdl,11.93
2022-03-08T00:12:00,sdl,9.59
2022-03-08T00:13:00,sdl,9.70
2022-03-08T00:14:00,sdl,9.78
2022-03-08T00:15:00,sdl,10.09
2022-03-08T00:16:00,sdl,9.99
2022-03-08T00:17:00,sdl,9.57
2022-03-08T00:18:00,sdl,9.58
2022-03-08T00:19:00,sdl,9.53
2022-03-08T00:20:00,sdl,9.52
2022-03-08T00:21:00,sdl,9.53
2022-03-08T00:22:00,sdl,9.57
2022-03-08T00:23:00,sdl,9.60
2022-03-08T00:24:00,sdl,9.56
2022-03-08T00:25:00,sdl,9.50
2022-03-08T00:26:00,sdl,10.04
2022-03-08T00:27:00,sdl,9.70
2022-03-08T00:28:00,sdl,13.10
2022-03-08T00:29:00,sdl,12.55
2022-03-08T00:30:00,sdl,12.66
2022-03-08T00:31:00,sdl,12.20
2022-03-08T00:32:00,sdl,12.20
2022-03-08T00:33:00,sdl,12.18
2022-03-08T00:34:00,sdl,12.26
2022-03-08T00:35:00,sdl,12.21
2022-03-08T00:36:00,sdl,12.11
2022-03-08T00:37:00,sdl,12.01
2022-03-08T00:38:00,sdl,9.71
2022-03-08T00:39:00,sdl,9.70
2022-03-08T00:40:00,sdl,9.97
2022-03-08T00:41:00,sdl,9.35
2022-03-08T00:42:00,sdl,9.41
2022-03-08T00:43:00,sdl,9.41
2022-03-08T00:44:00,sdl,9.81
2022-03-08T00:45:00,sdl,11.52
2022-03-08T00:46:00,sdl,9.36
2022-03-08T00:47:00,sdl,9.53
2022-03-08T00:48:00,sdl,9.51
2022-03-08T00:49:00,sdl,9.79
2022-03-08T00:50:00,sdl,9.28
2022-03-08T00:51:00,sdl,10.00
2022-03-08T00:52:00,sdl,9.29
2022-03-08T00:53:00,sdl,9.32
2022-03-08T00:54:00,sdl,9.34
2022-03-08T00:55:00,sdl,9.31
2022-03-08T00:56:00,sdl,9.41
2022-03-08T00:57:00,sdl,9.40
2022-03-08T00:58:00,sdl,13.82
2022-03-08T00:59:00,sdl,13.71
2022-03-08T01:00:00,sdl,13.58
2022-03-08T01:01:00,sdl,13.59
2022-03-08T01:02:00,sdl,13.60
2022-03-08T01:03:00,sdl,14.17
2022-03-08T01:04:00,sdl,13.69
2022-03-08T01:05:00,sdl,16.29
2022-03-08T01:06:00,sdl,11.72
2022-03-08T01:07:00,sdl,12.45
2022-03-08T01:08:00,sdl,12.50
2022-03-08T01:09:00,sdl,11.74
2022-03-08T01:10:00,sdl,12.38
2022-03-08T01:11:00,sdl,11.66
2022-03-08T01:12:00,sdl,11.58
2022-03-08T01:13:00,sdl,11.74
2022-03-08T01:14:00,sdl,11.99
2022-03-08T01:15:00,sdl,11.86
2022-03-08T01:16:00,sdl,11.90
2022-03-08T01:17:00,sdl,11.51
2022-03-08T01:18:00,sdl,11.46
2022-03-08T01:19:00,sdl,11.40
2022-03-08T01:20:00,sdl,9.25
2022-03-08T01:21:00,sdl,9.21
2022-03-08T01:22:00,sdl,9.19
2022-03-08T01:23:00,sdl,9.18
2022-03-08T01:24:00,sdl,9.14
2022-03-08T01:25:00,sdl,9.13
2022-03-08T01:26:00,sdl,9.10
2022-03-08T01:27:00,sdl,9.18
2022-03-08T01:28:00,sdl,9.27
2022-03-08T01:29:00,sdl,9.26
2022-03-08T01:30:00,sdl,9.25
2022-03-08T01:31:00,sdl,9.57
2022-03-08T01:32:00,sdl,9.27
2022-03-08T01:33:00,sdl,9.82
2022-03-08T01:34:00,sdl,9.31
2022-03-08T01:35:00,sdl,9.31
2022-03-08T01:36:00,sdl,9.28
2022-03-08T01:37:00,sdl,9.87
2022-03-08T01:38:00,sdl,9.72
2022-03-08T01:39:00,sdl,11.90
2022-03-08T01:40:00,sdl,11.88
2022-03-08T01:41:00,sdl,11.91
2022-03-08T01:42:00,sdl,11.83
2022-03-08T01:43:00,sdl,11.84
2022-03-08T01:44:00,sdl,11.95
2022-03-08T01:45:00,sdl,11.94
2022-03-08T01:46:00,sdl,12.08
2022-03-08T01:47:00,sdl,12.46
2022-03-08T01:48:00,sdl,10.15
2022-03-08T01:49:00,sdl,9.79
2022-03-08T01:50:00,sdl,9.68
2022-03-08T01:51:00,sdl,9.67
2022-03-08T01:52:00,sdl,10.31
2022-03-08T01:53:00,sdl,9.60
2022-03-08T01:54:00,sdl,9.58
2022-03-08T01:55:00,sdl,9.55
2022-03-08T01:56:00,sdl,9.72
2022-03-08T01:57:00,sdl,10.20
2022-03-08T01:58:00,sdl,11.27
2022-03-08T01:59:00,sdl,9.88
2022-03-08T02:00:00,sdl,9.89
2022-03-08T02:01:00,sdl,9.86
2022-03-08T02:02:00,sdl,9.93
2022-03-08T02:03:00,sdl,9.88
2022-03-08T02:04:00,sdl,9.80
2022-03-08T02:05:00,sdl,9.78
2022-03-08T02:06:00,sdl,9.86
2022-03-08T02:07:00,sdl,10.60
2022-03-08T02:08:00,sdl,9.85
2022-03-08T02:09:00,sdl,9.89
2022-03-08T02:10:00,sdl,9.93
2022-03-08T02:11:00,sdl,9.95
2022-03-08T02:12:00,sdl,9.94
2022-03-08T02:13:00,sdl,9.95
2022-03-08T02:14:00,sdl,12.21
2022-03-08T02:15:00,sdl,12.74
2022-03-08T02:16:00,sdl,12.27
2022-03-08T02:17:00,sdl,12.28
2022-03-08T02:18:00,sdl,12.20
2022-03-08T02:19:00,sdl,12.07
2022-03-08T02:20:00,sdl,12.03
2022-03-08T02:21:00,sdl,12.41
2022-03-08T02:22:00,sdl,12.52
2022-03-08T02:23:00,sdl,11.73
2022-03-08T02:24:00,sdl,11.86
2022-03-08T02:25:00,sdl,11.84
2022-03-08T02:26:00,sdl,11.81
2022-03-08T02:27:00,sdl,11.76
2022-03-08T02:28:00,sdl,11.73
2022-03-08T02:29:00,sdl,11.73
2022-03-08T02:30:00,sdl,11.86
2022-03-08T02:31:00,sdl,9.51
2022-03-08T02:32:00,sdl,9.53
2022-03-08T02:33:00,sdl,9.52
2022-03-08T02:34:00,sdl,9.79
2022-03-08T02:35:00,sdl,9.51
2022-03-08T02:36:00,sdl,9.47
2022-03-08T02:37:00,sdl,9.52
2022-03-08T02:38:00,sdl,9.72
2022-03-08T02:39:00,sdl,9.41
2022-03-08T02:40:00,sdl,9.35
2022-03-08T02:41:00,sdl,9.33
2022-03-08T02:42:00,sdl,9.33
2022-03-08T02:43:00,sdl,9.37
2022-03-08T02:44:00,sdl,9.35
2022-03-08T02:45:00,sdl,9.39
2022-03-08T02:46:00,sdl,9.36
2022-03-08T02:47:00,sdl,9.44
2022-03-08T02:48:00,sdl,9.51
2022-03-08T02:49:00,sdl,9.47
2022-03-08T02:50:00,sdl,12.02
2022-03-08T02:51:00,sdl,12.00
2022-03-08T02:52:00,sdl,11.56
2022-03-08T02:53:00,sdl,11.56
2022-03-08T02:54:00,sdl,11.52
2022-03-08T02:55:00,sdl,11.57
2022-03-08T02:56:00,sdl,11.59
2022-03-08T02:57:00,sdl,11.52
2022-03-08T02:58:00,sdl,11.40
2022-03-08T02:59:00,sdl,9.25
2022-03-08T03:00:00,sdl,9.41
2022-03-08T03:01:00,sdl,10.41
2022-03-08T03:02:00,sdl,9.30
2022-03-08T03:03:00,sdl,9.37
2022-03-08T03:04:00,sdl,9.45
2022-03-08T03:05:00,sdl,9.34
2022-03-08T03:06:00,sdl,9.47
2022-03-08T03:07:00,sdl,9.43
2022-03-08T03:08:00,sdl,9.33
2022-03-08T03:09:00,sdl,9.41
2022-03-08T03:10:00,sdl,9.33
2022-03-08T03:11:00,sdl,9.98
2022-03-08T03:12:00,sdl,9.38
2022-03-08T03:13:00,sdl,9.38
2022-03-08T03:14:00,sdl,9.33
2022-03-08T03:15:00,sdl,9.34
2022-03-08T03:16:00,sdl,9.46
2022-03-08T03:17:00,sdl,9.42
2022-03-08T03:18:00,sdl,9.39
2022-03-08T03:19:00,sdl,11.28
2022-03-08T03:20:00,sdl,9.72
2022-03-08T03:21:00,sdl,9.42
2022-03-08T03:22:00,sdl,9.38
2022-03-08T03:23:00,sdl,9.80
2022-03-08T03:24:00,sdl,9.94
2022-03-08T03:25:00,sdl,10.16
2022-03-08T03:26:00,sdl,12.15
2022-03-08T03:27:00,sdl,12.06
2022-03-08T03:28:00,sdl,12.60
2022-03-08T03:29:00,sdl,12.22
2022-03-08T03:30:00,sdl,12.24
2022-03-08T03:31:00,sdl,12.24
2022-03-08T03:32:00,sdl,12.82
2022-03-08T03:33:00,sdl,12.21
2022-03-08T03:34:00,sdl,12.20
2022-03-08T03:35:00,sdl,12.16
2022-03-08T03:36:00,sdl,12.20
2022-03-08T03:37:00,sdl,12.18
2022-03-08T03:38:00,sdl,12.12
2022-03-08T03:39:00,sdl,12.06
2022-03-08T03:40:00,sdl,12.04
2022-03-08T03:41:00,sdl,12.10
2022-03-08T03:42:00,sdl,13.78
2022-03-08T03:43:00,sdl,12.05
2022-03-08T03:44:00,sdl,9.88
2022-03-08T03:45:00,sdl,9.86
2022-03-08T03:46:00,sdl,9.81
2022-03-08T03:47:00,sdl,10.39
2022-03-08T03:48:00,sdl,10.21
2022-03-08T03:49:00,sdl,10.22
2022-03-08T03:50:00,sdl,9.83
2022-03-08T03:51:00,sdl,9.71
2022-03-08T03:52:00,sdl,9.69
2022-03-08T03:53:00,sdl,9.63
2022-03-08T03:54:00,sdl,9.62
2022-03-08T03:55:00,sdl,9.62
2022-03-08T03:56:00,sdl,9.68
2022-03-08T03:57:00,sdl,9.63
2022-03-08T03:58:00,sdl,9.61
2022-03-08T03:59:00,sdl,9.63
2022-03-08T04:00:00,sdl,9.69
2022-03-08T04:01:00,sdl,9.71
2022-03-08T04:02:00,sdl,9.83
2022-03-08T04:03:00,sdl,9.78
2022-03-08T04:04:00,sdl,9.77
2022-03-08T04:05:00,sdl,9.72
2022-03-08T04:06:00,sdl,9.78
2022-03-08T04:07:00,sdl,10.83
2022-03-08T04:08:00,sdl,11.81
2022-03-08T04:09:00,sdl,11.80
2022-03-08T04:10:00,sdl,11.75
2022-03-08T04:11:00,sdl,11.93
2022-03-08T04:12:00,sdl,17.00
2022-03-08T04:13:00,sdl,15.59
2022-03-08T04:14:00,sdl,15.74
2022-03-08T04:15:00,sdl,15.59
2022-03-08T04:16:00,sdl,16.29
2022-03-08T04:17:00,sdl,16.04
2022-03-08T04:18:00,sdl,14.42
2022-03-08T04:19:00,sdl,13.32
2022-03-08T04:20:00,sdl,13.42
2022-03-08T04:21:00,sdl,9.25
2022-03-08T04:22:00,sdl,9.26
2022-03-08T04:23:00,sdl,9.29
2022-03-08T04:24:00,sdl,9.34
2022-03-08T04:25:00,sdl,9.28
2022-03-08T04:26:00,sdl,9.44
2022-03-08T04:27:00,sdl,9.28
2022-03-08T04:28:00,sdl,9.31
2022-03-08T04:29:00,sdl,9.21
2022-03-08T04:30:00,sdl,10.29
2022-03-08T04:31:00,sdl,9.09
2022-03-08T04:32:00,sdl,9.78
2022-03-08T04:33:00,sdl,9.27
2022-03-08T04:34:00,sdl,9.88
2022-03-08T04:35:00,sdl,13.56
2022-03-08T04:36:00,sdl,13.58
2022-03-08T04:37:00,sdl,15.73
2022-03-08T04:38:00,sdl,15.90
2022-03-08T04:39:00,sdl,16.31
2022-03-08T04:40:00,sdl,15.75
2022-03-08T04:41:00,sdl,15.65
2022-03-08T04:42:00,sdl,15.66
2022-03-08T04:43:00,sdl,15.62
2022-03-08T04:44:00,sdl,15.77
2022-03-08T04:45:00,sdl,16.18
2022-03-08T04:46:00,sdl,16.16
2022-03-08T04:47:00,sdl,15.77
2022-03-08T04:48:00,sdl,15.80
2022-03-08T04:49:00,sdl,15.83
2022-03-08T04:50:00,sdl,15.80
2022-03-08T04:51:00,sdl,15.77
2022-03-08T04:52:00,sdl,15.78
2022-03-08T04:53:00,sdl,16.46
2022-03-08T04:54:00,sdl,15.70
2022-03-08T04:55:00,sdl,13.47
2022-03-08T04:56:00,sdl,13.45
2022-03-08T04:57:00,sdl,13.58
2022-03-08T04:58:00,sdl,13.73
2022-03-08T04:59:00,sdl,13.78
2022-03-08T05:00:00,sdl,13.77
2022-03-08T05:01:00,sdl,14.40
2022-03-08T05:02:00,sdl,13.91
2022-03-08T05:03:00,sdl,13.86
2022-03-08T05:04:00,sdl,13.80
2022-03-08T05:05:00,sdl,13.62
2022-03-08T05:06:00,sdl,13.50
2022-03-08T05:07:00,sdl,13.53
2022-03-08T05:08:00,sdl,13.45
2022-03-08T05:09:00,sdl,13.58
2022-03-08T05:10:00,sdl,13.62
2022-03-08T05:11:00,sdl,13.47
2022-03-08T05:12:00,sdl,13.54
2022-03-08T05:13:00,sdl,13.99
2022-03-08T05:14:00,sdl,14.12
2022-03-08T05:15:00,sdl,14.09
2022-03-08T05:16:00,sdl,13.85
2022-03-08T05:17:00,sdl,13.97
2022-03-08T05:18:00,sdl,14.33
2022-03-08T05:19:00,sdl,14.21
2022-03-08T05:20:00,sdl,13.88
2022-03-08T05:21:00,sdl,13.83
2022-03-08T05:22:00,sdl,13.71
2022-03-08T05:23:00,sdl,14.89
2022-03-08T05:24:00,sdl,13.66
2022-03-08T05:25:00,sdl,14.53
2022-03-08T05:26:00,sdl,14.97
2022-03-08T05:27:00,sdl,16.20
2022-03-08T05:28:00,sdl,15.96
2022-03-08T05:29:00,sdl,16.02
2022-03-08T05:30:00,sdl,15.98
2022-03-08T05:31:00,sdl,16.07
2022-03-08T05:32:00,sdl,16.88
2022-03-08T05:33:00,sdl,16.22
2022-03-08T05:34:00,sdl,16.21
2022-03-08T05:35:00,sdl,16.18
2022-03-08T05:40:00,sdl,13.94
2022-03-08T05:41:00,sdl,13.96
2022-03-08T05:42:00,sdl,13.94
2022-03-08T05:43:00,sdl,13.88
2022-03-08T05:44:00,sdl,13.78
2022-03-08T05:45:00,sdl,13.71
2022-03-08T05:46:00,sdl,14.12
2022-03-08T05:47:00,sdl,14.11
2022-03-08T05:48:00,sdl,14.10
2022-03-08T05:49:00,sdl,13.78
2022-03-08T05:50:00,sdl,13.81
2022-03-08T05:51:00,sdl,13.90
2022-03-08T05:52:00,sdl,16.54
2022-03-08T05:53:00,sdl,15.99
2022-03-08T05:54:00,sdl,16.01
2022-03-08T05:55:00,sdl,16.01
2022-03-08T05:56:00,sdl,15.69
2022-03-08T05:57:00,sdl,15.55
2022-03-08T05:58:00,sdl,15.60
2022-03-08T05:59:00,sdl,16.24
2022-03-08T06:00:00,sdl,16.59
2022-03-08T06:01:00,sdl,16.04
2022-03-08T06:02:00,sdl,15.81
2022-03-08T06:03:00,sdl,15.93
2022-03-08T06:04:00,sdl,15.91
2022-03-08T06:05:00,sdl,15.92
2022-03-08T06:06:00,sdl,15.86
2022-03-08T06:07:00,sdl,15.69
2022-03-08T06:08:00,sdl,15.67
2022-03-08T06:09:00,sdl,13.45
2022-03-08T06:10:00,sdl,13.46
2022-03-08T06:11:00,sdl,13.53
2022-03-08T06:12:00,sdl,13.54
2022-03-08T06:13:00,sdl,13.50
2022-03-08T06:14:00,sdl,13.65
2022-03-08T06:15:00,sdl,14.30
2022-03-08T06:16:00,sdl,13.55
2022-03-08T06:17:00,sdl,27.29
2022-03-08T06:18:00,sdl,14.05
2022-03-08T06:19:00,sdl,14.37
2022-03-08T06:20:00,sdl,14.95
2022-03-08T06:21:00,sdl,14.06
2022-03-08T06:22:00,sdl,13.89
2022-03-08T06:23:00,sdl,13.54
2022-03-08T06:24:00,sdl,13.45
2022-03-08T06:25:00,sdl,13.64
2022-03-08T06:26:00,sdl,13.59
2022-03-08T06:27:00,sdl,13.51
2022-03-08T06:28:00,sdl,13.55
2022-03-08T06:29:00,sdl,13.55
2022-03-08T06:30:00,sdl,13.68
2022-03-08T06:31:00,sdl,13.83
2022-03-08T06:32:00,sdl,13.74
2022-03-08T06:33:00,sdl,13.74
2022-03-08T06:34:00,sdl,13.98
2022-03-08T06:35:00,sdl,13.92
2022-03-08T06:36:00,sdl,13.90
2022-03-08T06:37:00,sdl,13.79
2022-03-08T06:38:00,sdl,13.94
2022-03-08T06:39:00,sdl,13.90
2022-03-08T06:40:00,sdl,13.89
2022-03-08T06:41:00,sdl,13.99
2022-03-08T06:42:00,sdl,14.07
2022-03-08T06:43:00,sdl,14.01
2022-03-08T06:44:00,sdl,15.84
2022-03-08T06:45:00,sdl,16.17
2022-03-08T06:46:00,sdl,16.72
2022-03-08T06:47:00,sdl,16.09
2022-03-08T06:48:00,sdl,16.18
2022-03-08T06:49:00,sdl,16.14
2022-03-08T06:50:00,sdl,16.20
2022-03-08T06:51:00,sdl,16.65
2022-03-08T06:52:00,sdl,16.70
2022-03-08T06:53:00,sdl,16.16
2022-03-08T06:54:00,sdl,16.13
2022-03-08T06:55:00,sdl,16.24
2022-03-08T06:56:00,sdl,16.15
2022-03-08T06:57:00,sdl,16.20
2022-03-08T06:58:00,sdl,16.19
2022-03-08T06:59:00,sdl,16.15
2022-03-08T07:00:00,sdl,13.89
2022-03-08T07:01:00,sdl,14.03
2022-03-08T07:02:00,sdl,14.87
2022-03-08T07:03:00,sdl,14.72
2022-03-08T07:04:00,sdl,14.85
2022-03-08T07:05:00,sdl,14.80
2022-03-08T07:06:00,sdl,16.16
2022-03-08T07:07:00,sdl,14.94
2022-03-08T07:08:00,sdl,15.23
2022-03-08T07:09:00,sdl,14.26
2022-03-08T07:10:00,sdl,14.27
2022-03-08T07:11:00,sdl,14.12
2022-03-08T07:12:00,sdl,14.28
2022-03-08T07:13:00,sdl,14.20
2022-03-08T07:14:00,sdl,15.32
2022-03-08T07:15:00,sdl,16.65
2022-03-08T07:16:00,sdl,16.43
2022-03-08T07:17:00,sdl,16.51
2022-03-08T07:18:00,sdl,16.40
2022-03-08T07:19:00,sdl,17.52
2022-03-08T07:20:00,sdl,16.45
2022-03-08T07:21:00,sdl,16.48
2022-03-08T07:22:00,sdl,16.79
2022-03-08T07:23:00,sdl,16.44
2022-03-08T07:24:00,sdl,17.10
2022-03-08T07:25:00,sdl,17.54
2022-03-08T07:26:00,sdl,14.78
2022-03-08T07:27:00,sdl,14.74
2022-03-08T07:28:00,sdl,14.74
2022-03-08T07:29:00,sdl,14.77
2022-03-08T07:30:00,sdl,15.19
2022-03-08T07:31:00,sdl,15.14
2022-03-08T07:32:00,sdl,14.94
2022-03-08T07:33:00,sdl,14.96
2022-03-08T07:34:00,sdl,14.72
2022-03-08T07:35:00,sdl,14.68
2022-03-08T07:36:00,sdl,14.85
2022-03-08T07:37:00,sdl,14.89
2022-03-08T07:38:00,sdl,15.28
2022-03-08T07:39:00,sdl,15.50
2022-03-08T07:40:00,sdl,14.38
2022-03-08T07:41:00,sdl,14.26
2022-03-08T07:42:00,sdl,14.26
2022-03-08T07:43:00,sdl,14.31
2022-03-08T07:44:00,sdl,14.22
2022-03-08T07:45:00,sdl,14.00
2022-03-08T07:46:00,sdl,14.26
2022-03-08T07:47:00,sdl,14.38
2022-03-08T07:48:00,sdl,14.16
2022-03-08T07:49:00,sdl,14.30
2022-03-08T07:50:00,sdl,14.29
2022-03-08T07:51:00,sdl,16.49
2022-03-08T07:52:00,sdl,17.04
2022-03-08T07:53:00,sdl,17.08
2022-03-08T07:54:00,sdl,17.07
2022-03-08T07:55:00,sdl,16.94
2022-03-08T07:56:00,sdl,16.63
2022-03-08T07:57:00,sdl,16.63
2022-03-08T07:58:00,sdl,16.67
2022-03-08T07:59:00,sdl,16.67
2022-03-08T08:00:00,sdl,16.74
2022-03-08T08:01:00,sdl,16.79
2022-03-08T08:02:00,sdl,16.84
2022-03-08T08:03:00,sdl,16.96
2022-03-08T08:04:00,sdl,17.19
2022-03-08T08:05:00,sdl,17.17
2022-03-08T08:06:00,sdl,17.16
2022-03-08T08:07:00,sdl,17.14
2022-03-08T08:08:00,sdl,14.46
2022-03-08T08:09:00,sdl,14.38
2022-03-08T08:10:00,sdl,14.42
2022-03-08T08:11:00,sdl,14.33
2022-03-08T08:12:00,sdl,14.78
2022-03-08T08:13:00,sdl,14.32
2022-03-08T08:14:00,sdl,14.60
2022-03-08T08:15:00,sdl,14.70
2022-03-08T08:16:00,sdl,14.62
2022-03-08T08:17:00,sdl,15.63
2022-03-08T08:18:00,sdl,17.16
2022-03-08T08:19:00,sdl,16.41
2022-03-08T08:20:00,sdl,16.33
2022-03-08T08:21:00,sdl,16.09
2022-03-08T08:22:00,sdl,16.18
2022-03-08T08:23:00,sdl,16.07
2022-03-08T08:24:00,sdl,16.21
2022-03-08T08:25:00,sdl,16.77
2022-03-08T08:26:00,sdl,16.76
2022-03-08T08:27:00,sdl,16.32
2022-03-08T08:28:00,sdl,16.40
2022-03-08T08:29:00,sdl,16.39
2022-03-08T08:30:00,sdl,16.24
2022-03-08T08:31:00,sdl,16.26
2022-03-08T08:32:00,sdl,27.71
2022-03-08T08:33:00,sdl,16.14
2022-03-08T08:34:00,sdl,16.18
2022-03-08T08:35:00,sdl,16.10
2022-03-08T08:36:00,sdl,16.08
2022-03-08T08:37:00,sdl,16.56
2022-03-08T08:38:00,sdl,19.09
2022-03-08T08:39:00,sdl,19.05
2022-03-08T08:40:00,sdl,19.14
2022-03-08T08:41:00,sdl,19.17
2022-03-08T08:42:00,sdl,29.78
2022-03-08T08:43:00,sdl,17.99
2022-03-08T08:44:00,sdl,19.06
2022-03-08T08:45:00,sdl,20.30
2022-03-08T08:46:00,sdl,33.48
2022-03-08T08:47:00,sdl,18.23
2022-03-08T08:48:00,sdl,18.14
2022-03-08T08:49:00,sdl,20.00
2022-03-08T08:50:00,sdl,19.49
2022-03-08T08:51:00,sdl,21.12
2022-03-08T08:52:00,sdl,21.11
2022-03-08T08:53:00,sdl,19.53
2022-03-08T08:54:00,sdl,18.73
2022-03-08T08:55:00,sdl,19.37
2022-03-08T08:56:00,sdl,19.06
2022-03-08T08:57:00,sdl,18.61
2022-03-08T08:58:00,sdl,18.70
2022-03-08T08:59:00,sdl,18.66
2022-03-08T09:00:00,sdl,18.60
2022-03-08T09:01:00,sdl,18.55
2022-03-08T09:02:00,sdl,21.85
2022-03-08T09:03:00,sdl,20.73
2022-03-08T09:04:00,sdl,20.85
2022-03-08T09:05:00,sdl,22.21
2022-03-08T09:06:00,sdl,23.03
2022-03-08T09:07:00,sdl,22.34
2022-03-08T09:08:00,sdl,22.39
2022-03-08T09:09:00,sdl,28.87
2022-03-08T09:10:00,sdl,22.34
2022-03-08T09:11:00,sdl,22.36
2022-03-08T09:12:00,sdl,22.39
2022-03-08T09:13:00,sdl,22.41
2022-03-08T09:14:00,sdl,22.55
2022-03-08T09:15:00,sdl,22.39
2022-03-08T09:16:00,sdl,22.39
2022-03-08T09:17:00,sdl,22.31
2022-03-08T09:18:00,sdl,22.65
2022-03-08T09:19:00,sdl,20.53
2022-03-08T09:20:00,sdl,19.63
2022-03-08T09:21:00,sdl,19.76
2022-03-08T09:22:00,sdl,19.26
2022-03-08T09:23:00,sdl,19.39
2022-03-08T09:24:00,sdl,19.20
2022-03-08T09:25:00,sdl,19.32
2022-03-08T09:26:00,sdl,20.16
2022-03-08T09:27:00,sdl,19.58
2022-03-08T09:28:00,sdl,20.78
2022-03-08T09:29:00,sdl,19.37
2022-03-08T09:30:00,sdl,19.36
2022-03-08T09:31:00,sdl,19.45
2022-03-08T09:32:00,sdl,19.48
2022-03-08T09:33:00,sdl,19.47
2022-03-08T09:34:00,sdl,19.55
2022-03-08T09:35:00,sdl,19.55
2022-03-08T09:36:00,sdl,19.47
2022-03-08T09:37:00,sdl,19.40
2022-03-08T09:38:00,sdl,19.31
2022-03-08T09:39:00,sdl,20.45
2022-03-08T09:40:00,sdl,19.19
2022-03-08T09:41:00,sdl,19.37
2022-03-08T09:42:00,sdl,19.38
2022-03-08T09:43:00,sdl,19.43
2022-03-08T09:44:00,sdl,19.76
2022-03-08T09:45:00,sdl,19.76
2022-03-08T09:46:00,sdl,19.68
2022-03-08T09:47:00,sdl,19.65
2022-03-08T09:48:00,sdl,19.59
2022-03-08T09:49:00,sdl,18.82
2022-03-08T09:50:00,sdl,18.99
2022-03-08T09:51:00,sdl,19.01
2022-03-08T09:52:00,sdl,18.98
2022-03-08T09:53:00,sdl,18.96
2022-03-08T09:54:00,sdl,21.93
2022-03-08T09:55:00,sdl,21.97
2022-03-08T09:56:00,sdl,21.67
2022-03-08T09:57:00,sdl,22.70
2022-03-08T09:58:00,sdl,22.10
2022-03-08T09:59:00,sdl,21.60
2022-03-08T10:00:00,sdl,21.18
2022-03-08T10:01:00,sdl,21.22
2022-03-08T10:02:00,sdl,21.13
2022-03-08T10:03:00,sdl,21.81
2022-03-08T10:04:00,sdl,21.19
2022-03-08T10:05:00,sdl,21.35
2022-03-08T10:06:00,sdl,21.33
2022-03-08T10:07:00,sdl,21.69
2022-03-08T10:08:00,sdl,35.29
2022-03-08T10:09:00,sdl,21.75
2022-03-08T10:10:00,sdl,19.41
2022-03-08T10:11:00,sdl,19.47
2022-03-08T10:12:00,sdl,19.37
2022-03-08T10:13:00,sdl,19.38
2022-03-08T10:14:00,sdl,19.39
2022-03-08T10:15:00,sdl,34.57
2022-03-08T10:16:00,sdl,19.04
2022-03-08T10:17:00,sdl,19.04
2022-03-08T10:18:00,sdl,19.12
2022-03-08T10:19:00,sdl,19.04
2022-03-08T10:20:00,sdl,19.00
2022-03-08T10:21:00,sdl,19.17
2022-03-08T10:22:00,sdl,21.34
2022-03-08T10:23:00,sdl,21.54
2022-03-08T10:24:00,sdl,21.06
2022-03-08T10:25:00,sdl,20.94
2022-03-08T10:26:00,sdl,21.12
2022-03-08T10:27:00,sdl,25.32
2022-03-08T10:28:00,sdl,21.16
2022-03-08T10:29:00,sdl,36.08
2022-03-08T10:30:00,sdl,21.40
2022-03-08T10:31:00,sdl,21.36
2022-03-08T10:32:00,sdl,21.32
2022-03-08T10:33:00,sdl,21.23
2022-03-08T10:34:00,sdl,21.60
2022-03-08T10:35:00,sdl,21.90
2022-03-08T10:36:00,sdl,20.04
2022-03-08T10:37:00,sdl,18.90
2022-03-08T10:38:00,sdl,19.90
2022-03-08T10:39:00,sdl,19.24
2022-03-08T10:40:00,sdl,19.39
2022-03-08T10:41:00,sdl,19.71
2022-03-08T10:42:00,sdl,19.72
2022-03-08T10:43:00,sdl,19.80
2022-03-08T10:44:00,sdl,20.18
2022-03-08T10:45:00,sdl,20.05
2022-03-08T10:46:00,sdl,19.92
2022-03-08T10:47:00,sdl,19.50
2022-03-08T10:48:00,sdl,19.67
2022-03-08T10:49:00,sdl,19.75
2022-03-08T10:50:00,sdl,20.38
2022-03-08T10:51:00,sdl,21.34
2022-03-08T10:52:00,sdl,20.96
2022-03-08T10:53:00,sdl,20.77
2022-03-08T10:54:00,sdl,20.58
2022-03-08T10:55:00,sdl,20.78
2022-03-08T10:56:00,sdl,20.75
2022-03-08T10:57:00,sdl,20.61
2022-03-08T10:58:00,sdl,20.50
2022-03-08T10:59:00,sdl,21.42
2022-03-08T11:00:00,sdl,20.39
2022-03-08T11:01:00,sdl,22.64
2022-03-08T11:02:00,sdl,22.59
2022-03-08T11:03:00,sdl,22.67
2022-03-08T11:04:00,sdl,23.22
2022-03-08T11:05:00,sdl,23.38
2022-03-08T11:06:00,sdl,23.37
2022-03-08T11:07:00,sdl,23.35
2022-03-08T11:08:00,sdl,23.07
2022-03-08T11:09:00,sdl,23.38
2022-03-08T11:10:00,sdl,23.21
2022-03-08T11:11:00,sdl,23.12
2022-03-08T11:12:00,sdl,38.53
2022-03-08T11:13:00,sdl,24.55
2022-03-08T11:14:00,sdl,23.21
2022-03-08T11:15:00,sdl,23.67
2022-03-08T11:16:00,sdl,23.30
2022-03-08T11:17:00,sdl,23.60
2022-03-08T11:18:00,sdl,23.97
2022-03-08T11:19:00,sdl,24.14
2022-03-08T11:20:00,sdl,35.93
2022-03-08T11:21:00,sdl,20.75
2022-03-08T11:22:00,sdl,21.94
2022-03-08T11:23:00,sdl,20.71
2022-03-08T11:24:00,sdl,20.74
2022-03-08T11:25:00,sdl,21.15
2022-03-08T11:26:00,sdl,21.24
2022-03-08T11:27:00,sdl,20.39
2022-03-08T11:28:00,sdl,20.93
2022-03-08T11:29:00,sdl,35.93
2022-03-08T11:30:00,sdl,21.63
2022-03-08T11:31:00,sdl,20.45
2022-03-08T11:32:00,sdl,20.40
2022-03-08T11:33:00,sdl,20.49
2022-03-08T11:34:00,sdl,21.94
2022-03-08T11:35:00,sdl,21.67
2022-03-08T11:36:00,sdl,21.34
2022-03-08T11:37:00,sdl,21.27
2022-03-08T11:38:00,sdl,23.47
2022-03-08T11:39:00,sdl,22.00
2022-03-08T11:40:00,sdl,21.83
2022-03-08T11:41:00,sdl,23.26
2022-03-08T11:42:00,sdl,21.87
2022-03-08T11:43:00,sdl,21.90
2022-03-08T11:44:00,sdl,22.04
2022-03-08T11:45:00,sdl,22.05
2022-03-08T11:46:00,sdl,22.96
2022-03-08T11:47:00,sdl,22.25
2022-03-08T11:48:00,sdl,19.48
2022-03-08T11:49:00,sdl,19.48
2022-03-08T11:50:00,sdl,19.75
2022-03-08T11:51:00,sdl,19.72
2022-03-08T11:52:00,sdl,19.71
2022-03-08T11:53:00,sdl,19.70
2022-03-08T11:54:00,sdl,19.77
2022-03-08T11:55:00,sdl,19.87
2022-03-08T11:56:00,sdl,19.79
2022-03-08T11:57:00,sdl,19.83
2022-03-08T11:58:00,sdl,20.53
2022-03-08T11:59:00,sdl,20.36
2022-03-08T12:00:00,sdl,20.23
2022-03-08T12:01:00,sdl,19.99
2022-03-08T12:02:00,sdl,20.18
2022-03-08T12:03:00,sdl,19.56
2022-03-08T12:04:00,sdl,19.61
2022-03-08T12:05:00,sdl,19.72
2022-03-08T12:06:00,sdl,20.58
2022-03-08T12:07:00,sdl,21.95
2022-03-08T12:08:00,sdl,22.13
2022-03-08T12:09:00,sdl,21.97
2022-03-08T12:10:00,sdl,22.46
2022-03-08T12:11:00,sdl,22.69
2022-03-08T12:12:00,sdl,23.84
2022-03-08T12:13:00,sdl,22.65
2022-03-08T12:14:00,sdl,22.65
2022-03-08T12:15:00,sdl,23.33
2022-03-08T12:16:00,sdl,23.38
2022-03-08T12:17:00,sdl,22.39
2022-03-08T12:18:00,sdl,21.99
2022-03-08T12:19:00,sdl,21.98
2022-03-08T12:20:00,sdl,21.84
2022-03-08T12:21:00,sdl,21.78
2022-03-08T12:22:00,sdl,22.02
2022-03-08T12:23:00,sdl,22.06
2022-03-08T12:24:00,sdl,21.54
2022-03-08T12:25:00,sdl,21.57
2022-03-08T12:26:00,sdl,21.35
2022-03-08T12:27:00,sdl,19.13
2022-03-08T12:28:00,sdl,19.24
2022-03-08T12:29:00,sdl,19.24
2022-03-08T12:30:00,sdl,19.38
2022-03-08T12:31:00,sdl,19.39
2022-03-08T12:32:00,sdl,19.37
2022-03-08T12:33:00,sdl,19.35
2022-03-08T12:34:00,sdl,19.33
2022-03-08T12:35:00,sdl,19.94
2022-03-08T12:36:00,sdl,20.04
2022-03-08T12:37:00,sdl,20.59
2022-03-08T12:38:00,sdl,20.50
2022-03-08T12:39:00,sdl,20.47
2022-03-08T12:40:00,sdl,20.59
2022-03-08T12:41:00,sdl,21.13
2022-03-08T12:42:00,sdl,20.63
2022-03-08T12:43:00,sdl,21.20
2022-03-08T12:44:00,sdl,19.57
2022-03-08T12:45:00,sdl,20.00
2022-03-08T12:46:00,sdl,19.94
2022-03-08T12:47:00,sdl,19.87
2022-03-08T12:48:00,sdl,20.52
2022-03-08T12:49:00,sdl,19.95
2022-03-08T12:50:00,sdl,19.52
2022-03-08T12:51:00,sdl,19.53
2022-03-08T12:52:00,sdl,19.99
2022-03-08T12:53:00,sdl,20.04
2022-03-08T12:54:00,sdl,19.56
2022-03-08T12:55:00,sdl,21.77
2022-03-08T12:56:00,sdl,21.81
2022-03-08T12:57:00,sdl,22.03
2022-03-08T12:58:00,sdl,22.75
2022-03-08T12:59:00,sdl,22.63
2022-03-08T13:00:00,sdl,21.24
2022-03-08T13:01:00,sdl,21.23
2022-03-08T13:02:00,sdl,21.87
2022-03-08T13:03:00,sdl,21.22
2022-03-08T13:04:00,sdl,21.89
2022-03-08T13:05:00,sdl,21.16
2022-03-08T13:06:00,sdl,19.36
2022-03-08T13:07:00,sdl,19.41
2022-03-08T13:08:00,sdl,19.54
2022-03-08T13:09:00,sdl,19.76
2022-03-08T13:10:00,sdl,19.56
2022-03-08T13:11:00,sdl,19.86
2022-03-08T13:12:00,sdl,19.66
2022-03-08T13:13:00,sdl,19.77
2022-03-08T13:14:00,sdl,19.64
2022-03-08T13:15:00,sdl,19.78
2022-03-08T13:16:00,sdl,19.78
2022-03-08T13:17:00,sdl,20.09
2022-03-08T13:18:00,sdl,20.25
2022-03-08T13:19:00,sdl,37.06
2022-03-08T13:20:00,sdl,22.07
2022-03-08T13:21:00,sdl,22.03
2022-03-08T13:22:00,sdl,22.24
2022-03-08T13:23:00,sdl,21.88
2022-03-08T13:24:00,sdl,21.09
2022-03-08T13:25:00,sdl,21.66
2022-03-08T13:26:00,sdl,21.64
2022-03-08T13:27:00,sdl,21.61